Location: Slemon Park
(46.4340°N, 63.8219°W)
Time: 07:14:39
(UTC-03:00)

Daily predictions for brighter satellites

Satellite Brightness Start Highest point End
(mag) Time Altitude Azimuth Time Altitude Azimuth Time Altitude Azimuth
Cosmos 1980 4.4 19:23:13 10° SW 19:28:48 61° WNW 19:34:26 10° NNE
CENTAUR R/B 4.0 19:28:40 10° SE 19:31:15 13° ESE 19:33:56 10° ENE
SL-16 R/B 2.2 19:29:43 10° SSW 19:35:22 68° ESE 19:41:02 10° NNE
NOSS 3-2 (C) 3.7 19:31:35 10° SSW 19:37:27 52° ESE 19:43:52 10° NE
Cosmos 1766 3.3 19:35:02 10° S 19:38:58 65° E 19:42:57 10° NNE
Helios 1B rocket 3.3 19:36:54 10° NE 19:40:27 28° E 19:44:00 10° SSE
METEOR-M 4.2 19:36:04 10° SSE 19:41:16 56° ENE 19:46:31 10° N
Cosmos 1766 Rocket 3.6 19:38:39 10° N 19:42:58 55° ENE 19:47:14 10° SSE
Cosmos 1544 4.2 19:43:10 10° SE 19:46:10 23° E 19:49:12 10° NE
Cosmos 1076 Rocket 3.5 19:44:41 10° N 19:49:03 77° E 19:53:23 10° SSE
Spot 2 Rocket 3.5 19:44:26 10° SSE 19:49:23 58° ENE 19:54:21 10° N
Cosmos 1378 3.5 19:46:41 10° NNW 19:50:25 68° W 19:54:06 10° S
Spot 1 4.2 19:46:02 10° SSE 19:50:41 67° ENE 19:55:05 10° N
Cosmos 2219 Rocket 4.1 19:45:50 10° WSW 19:50:51 32° NW 19:55:54 10° NNE
CZ-2D R/B 4.5 19:49:20 10° ESE 19:52:30 24° ENE 19:55:40 10° NNE
ERBS 4.4 19:50:07 10° NNW 19:52:36 18° NNE 19:55:04 10° ENE
Cosmos 2034 Rocket 4.1 19:47:51 10° SSE 19:53:56 56° E 20:00:07 10° NNE
FENGYUN 3A 4.1 19:49:54 10° SE 19:54:52 39° ENE 19:59:52 10° N
Cosmos 1464 Rocket 3.9 19:48:53 10° S 19:55:06 74° E 20:01:17 10° NNE
SAR-Lupe-4 4.3 19:52:10 10° S 19:55:40 56° WSW 19:59:12 10° NNW
CZ-4C R/B 3.3 19:51:10 10° WSW 19:56:28 47° NW 20:02:31 10° NNE
Cosmos 192 4.3 19:53:34 10° SSW 19:58:32 80° ESE 20:03:31 10° NNE
Cosmos-2242 3.3 19:54:54 10° SSE 19:59:04 46° E 20:03:18 10° NNE
ATLAS CENTAUR R/B 4.2 19:57:27 10° WNW 19:59:58 16° WSW 20:02:23 10° SSW
Meteor 1-28 Rocket 3.1 19:57:13 10° NNE 20:00:58 85° ESE 20:04:40 10° SSW
Cosmos 2151 4.4 20:01:54 10° NNE 20:05:00 20° ENE 20:06:04 18° E
H-2A R/B 3.5 20:03:53 14° SE 20:06:42 32° ENE 20:10:11 10° N
Cosmos 1805 3.2 20:03:57 10° S 20:07:50 63° E 20:11:45 10° NNE
Cosmos 1953 2.2 20:04:50 10° S 20:08:47 66° E 20:12:45 10° NNE
ALOS 2.5 20:05:05 10° SE 20:09:35 49° ENE 20:14:06 10° N
USA 215 3.5 20:04:00 10° ENE 20:10:17 47° SE 20:16:31 10° SSW
ISS -1.4 20:09:43 10° S 20:11:24 16° SE 20:11:24 16° SE
Cosmos 1943 Rocket 3.5 20:09:47 10° N 20:14:14 23° NE 20:16:35 18° E
Cosmos 2369 Rocket 2.6 20:08:52 10° NNW 20:14:15 43° NE 20:17:56 19° ESE
Cosmos 1408 Rocket 4.0 20:11:29 10° NNW 20:15:49 63° W 20:20:04 10° S
Cosmos 1500 Rocket 3.9 20:11:52 10° N 20:16:08 45° ENE 20:19:50 13° SSE
HJ-1C 3.6 20:13:15 10° S 20:16:36 71° W 20:19:59 10° NNW
Cosmos 1943 4.0 20:13:24 10° SSE 20:18:00 27° ESE 20:22:37 10° NE
Cosmos 1842 Rocket 4.0 20:14:35 10° SSE 20:18:33 36° E 20:22:33 10° NNE
Cosmos 1603 3.7 20:17:13 10° SSW 20:22:51 64° ESE 20:28:33 10° NNE
USA 186 3.3 20:29:29 16° NNE 20:29:29 16° NNE 20:30:09 10° N
Cosmos 1470 2.9 20:27:32 10° SSE 20:31:15 45° E 20:34:59 10° NNE
SeaSat 1 4.0 20:28:29 10° NE 20:35:13 17° SSE 20:36:46 10° SSE
SL-8 R/B 4.2 20:28:30 10° SW 20:32:55 38° SSE 20:34:16 32° ESE
Cosmos 1733 3.5 20:33:52 33° SE 20:34:53 41° E 20:38:32 10° NNE
ATLAS CENTAUR R/B 4.1 20:29:25 10° SW 20:35:18 90° SE 20:55:38 10° NE
ERS-1 Rocket 3.8 20:35:21 28° E 20:36:23 31° ENE 20:40:46 10° N
Cosmos 724 4.3 20:31:07 10° SSW 20:37:04 84° ESE 20:43:13 10° NE
Meteor 1-29 3.1 20:35:11 10° N 20:38:43 76° WNW 20:42:11 10° SSW
Resurs 1-3 4.1 20:35:46 10° S 20:40:05 59° WSW 20:44:28 10° NNW
Helios 1A 3.9 20:37:27 10° S 20:41:31 48° W 20:45:38 10° NNW
TELKOM 3 4.2 20:40:07 10° WNW 20:42:25 36° SW 20:42:25 36° SW
CZ-4B DEB 3.0 20:41:22 23° S 20:43:14 71° WSW 20:46:31 10° NNW
Resurs 01 Rocket 2.8 20:39:06 10° S 20:43:20 43° W 20:47:36 10° NNW
Cosmos 839 Rocket 4.3 20:35:46 10° NNW 20:43:49 72° NE 20:47:37 28° SE
Cosmos 1674 2.7 20:40:01 10° N 20:43:55 87° WSW 20:46:25 21° S
Cosmos 1743 Rocket 3.9 20:40:34 10° NNW 20:44:59 65° W 20:49:21 10° S
NOSS 3-2 (A) 4.3 20:43:14 10° WSW 20:49:18 54° NW 20:56:00 10° NE
Meteor 1-16 Rocket 4.3 20:55:06 42° ESE 20:55:44 44° E 21:00:46 10° NNE
Meteor 1-11 4.4 20:50:16 10° N 20:55:58 54° ENE 20:57:48 39° SE
ATLAS 5 CENTAUR R/B 2.6 20:53:59 10° WSW 20:58:45 53° NW 21:04:00 10° NNE
Nadezhda 4 Rocket 4.5 20:52:38 10° NNW 20:58:50 61° W 21:04:56 10° S
SJ-11-01 4.4 20:58:36 50° E 20:59:05 52° ENE 21:03:39 10° N
Abrixas 4.5 20:56:27 10° SW 20:57:41 21° SW 20:57:41 21° SW
Cosmos 2279 Rocket 4.3 21:01:55 41° ESE 21:02:43 43° E 21:08:30 10° NNE
Cosmos 1092 Rocket 4.2 21:00:39 10° NNW 21:06:50 71° W 21:12:57 10° S
GP-B 3.0 21:02:32 10° N 21:07:01 85° E 21:08:19 46° S
Cosmos 1655 Rocket 3.9 21:02:43 10° N 21:08:56 65° ENE 21:11:00 42° SE
ASTEX 1 3.8 21:05:06 10° N 21:09:58 63° W 21:14:47 10° SSW
Cosmos 1331 Rocket 3.9 21:08:31 10° NNW 21:13:50 66° ENE 21:14:25 61° ESE
Helios 1B rocket 4.5 21:12:11 10° N 21:15:45 29° WNW 21:19:17 10° SW
Cosmos 2142 Rocket 4.4 21:09:56 10° S 21:16:19 84° E 21:22:45 10° N
Cosmos 1328 3.9 21:13:35 10° NNW 21:17:30 73° W 21:17:30 73° W
SL-24 R/B - RUBIN 2 4.4 21:12:10 10° NW 21:18:56 77° NE 21:20:28 54° ESE
SL-16 R/B 4.4 21:15:26 10° W 21:20:01 24° NW 21:24:37 10° N
Cosmos 2026 Rocket 3.8 21:14:07 10° N 21:20:15 85° E 21:22:36 40° SSE
CENTAUR R/B 2.4 21:14:22 10° SSW 21:20:27 72° SE 21:27:22 10° NE
Cosmos 1939 Rocket 3.9 21:22:00 38° N 21:22:00 38° N 21:24:35 10° N
Cosmos 1428 Rocket 4.5 21:17:21 10° N 21:23:36 62° ENE 21:24:21 57° ESE
Cosmos 1634 Rocket 4.0 21:18:50 10° SSW 21:25:05 80° W 21:31:20 10° N
SL-14 R/B 4.1 21:21:41 10° N 21:24:32 44° N 21:24:32 44° N
Cosmos 1302 Rocket 4.4 21:20:42 10° NNW 21:25:13 48° NE 21:25:13 48° NE
H-2A R/B 3.6 21:28:54 28° NNE 21:28:54 28° NNE 21:31:22 10° N
Cosmos 1805 Rocket 4.2 21:23:16 10° N 21:26:35 48° N 21:26:35 48° N
ERBS 4.2 21:26:34 10° NW 21:28:32 29° NNW 21:28:32 29° NNW
SPOT 5 4.2 21:34:30 25° NNE 21:34:30 25° NNE 21:36:35 10° N
Envisat 2.9 21:39:20 81° NNW 21:39:20 81° NNW 21:44:12 10° NNW
Cosmos 2221 4.3 21:44:38 24° N 21:44:38 24° N 21:46:22 10° N
Cosmos 2151 4.1 21:38:32 10° NNW 21:42:30 40° W 21:42:41 40° W
Cosmos 2058 4.1 21:41:05 10° NNW 21:44:01 41° NW 21:44:01 41° NW
H-2A R/B 4.0 21:51:24 17° NNE 21:51:24 17° NNE 21:53:00 10° N
BREEZE-M DEB (TANK) 3.4 21:43:53 10° WNW 21:52:04 59° WSW 21:52:04 59° WSW
USA 215 3.5 21:49:37 26° NE 21:53:28 65° NNW 21:59:54 10° WSW
Meteor 2-20 Rocket 4.4 21:48:34 10° N 21:54:16 73° NNE 21:54:16 73° NNE
Meteor 2-20 4.3 21:48:37 10° N 21:54:49 84° W 21:54:59 82° SW
Cosmos 2369 Rocket 3.6 21:53:08 10° NW 21:58:09 33° WSW 21:59:45 28° SW
Cosmos 1943 Rocket 2.4 21:52:56 10° NNW 21:58:07 68° WNW 21:58:07 68° WNW
Cosmos 1943 3.9 21:56:14 10° SW 22:01:43 52° WNW 22:07:14 10° NNE
SeaSat 1 3.9 22:05:35 10° NNE 22:15:14 - SW 22:08:13 30° N
ERS-1 Rocket 4.2 22:15:21 37° W 22:15:21 37° W 22:19:44 10° NNW
Terra 4.3 22:35:55 15° N 22:35:55 15° N 22:36:44 10° N
ATLAS 5 CENTAUR R/B 4.5 22:41:13 10° WNW 22:44:44 18° NNW 22:47:55 12° NNE
CENTAUR R/B 4.0 23:05:55 10° W 23:11:45 35° NNW 23:18:17 10° NNE
